Weather History for Philadelphia Wings Airport, PA

Change the Weather History Date:

Monday, February 17, 2014

  Actual Average (KPNE) Record (KPNE)
Temperature  
Mean Temperature 24 °F -  
Max Temperature 32 °F 42 °F 66 °F (2011)
Min Temperature 17 °F 26 °F 15 °F (2003)
Degree Days  
Heating Degree Days 40    
Moisture  
Dew Point 7 °F    
Average Humidity 52    
Maximum Humidity 74    
Minimum Humidity 27    
Precipitation  
Precipitation 0.00 in - - ()
Sea Level Pressure  
Sea Level Pressure 30.32 in    
Wind  
Wind Speed 2 mph (NW)    
Max Wind Speed 8 mph    
Max Gust Speed 17 mph    
Visibility 10 miles    
Events      
Averages and records for this station are not official NWS values.
T = Trace of Precipitation, MM = Missing Value Source: NWS Daily Summary

Daily Weather History Graph

Daily Weather History Graph

Search for Another Location

Airport:

Trip Planner

Search our weather history database for the weather conditions in past years. The results will help you decide how hot, cold, wet, or windy it might be!

Date:

Astronomy

Feb. 17, 2014 Rise Set
Actual Time 6:51 AM EST 5:39 PM EST
Civil Twilight 6:23 AM EST 6:06 PM EST
Nautical Twilight 5:52 AM EST 6:38 PM EST
Astronomical Twilight 5:20 AM EST 7:10 PM EST
Moon 8:31 PM EST (2/17) 7:50 AM EST (2/17)
Length of Visible Light 11h 43m
Length of Day
10h 47m
Waning Gibbous, 93% of the Moon is Illuminated
Feb 17
Waning Gibbous
Feb 22
Last Quarter
Mar 1
New
Mar 8
First Quarter
Mar 16
Full

Hourly Weather History & Observations

Time (EST) Temp. Windchill Dew Point Humidity Pressure Visibility Wind Dir Wind Speed Gust Speed Precip Events Conditions
12:15 AM 23.0 °F - 15.8 °F 74% 30.16 in 10.0 mi Calm Calm - N/A   Clear
12:35 AM 23.0 °F - 14.0 °F 68% 30.18 in 10.0 mi Calm Calm - N/A   Clear
12:55 AM 23.0 °F - 14.0 °F 68% 30.18 in 10.0 mi Calm Calm - N/A   Clear
1:15 AM 23.0 °F - 14.0 °F 68% 30.19 in 10.0 mi Calm Calm - N/A   Clear
1:35 AM 21.2 °F - 14.0 °F 74% 30.20 in 10.0 mi Calm Calm - N/A   Clear
1:55 AM 21.2 °F 16.4 °F 12.2 °F 68% 30.21 in 10.0 mi NW 3.5 mph - N/A   Clear
2:15 AM 21.2 °F 16.4 °F 12.2 °F 68% 30.22 in 10.0 mi NW 3.5 mph - N/A   Clear
2:35 AM 23.0 °F 18.4 °F 10.4 °F 59% 30.23 in 10.0 mi NW 3.5 mph - N/A   Clear
2:55 AM 21.2 °F 14.9 °F 10.4 °F 63% 30.24 in 10.0 mi WNW 4.6 mph - N/A   Clear
3:15 AM 21.2 °F - 8.6 °F 58% 30.24 in 10.0 mi Calm Calm - N/A   Clear
3:35 AM 21.2 °F 12.6 °F 8.6 °F 58% 30.26 in 10.0 mi NW 6.9 mph 16.1 mph N/A   Clear
3:55 AM 21.2 °F 13.6 °F 6.8 °F 54% 30.26 in 10.0 mi NW 5.8 mph - N/A   Clear
4:15 AM 21.2 °F 14.9 °F 6.8 °F 54% 30.27 in 10.0 mi WNW 4.6 mph - N/A   Clear
4:35 AM 19.4 °F 14.3 °F 8.6 °F 63% 30.27 in 10.0 mi West 3.5 mph - N/A   Clear
4:55 AM 19.4 °F 14.3 °F 8.6 °F 63% 30.28 in 10.0 mi WNW 3.5 mph - N/A   Clear
5:15 AM 19.4 °F 12.8 °F 8.6 °F 63% 30.28 in 10.0 mi WNW 4.6 mph - N/A   Clear
5:35 AM 19.4 °F 14.3 °F 6.8 °F 58% 30.30 in 10.0 mi WNW 3.5 mph - N/A   Clear
5:55 AM 19.4 °F 14.3 °F 6.8 °F 58% 30.30 in 10.0 mi WNW 3.5 mph - N/A   Clear
6:15 AM 17.6 °F 12.3 °F 6.8 °F 63% 30.31 in 10.0 mi WNW 3.5 mph - N/A   Clear
6:35 AM 17.6 °F 12.3 °F 6.8 °F 63% 30.32 in 10.0 mi NW 3.5 mph - N/A   Clear
6:55 AM 17.6 °F - 6.8 °F 63% 30.33 in 10.0 mi Calm Calm - N/A   Clear
7:15 AM 17.6 °F - 6.8 °F 63% 30.34 in 10.0 mi Calm Calm - N/A   Clear
7:35 AM 17.6 °F 10.7 °F 6.8 °F 63% 30.35 in 10.0 mi WNW 4.6 mph - N/A   Clear
7:55 AM 19.4 °F 11.5 °F 6.8 °F 58% 30.37 in 10.0 mi WNW 5.8 mph - N/A   Clear
8:15 AM 21.2 °F 12.6 °F 5.0 °F 50% 30.38 in 10.0 mi WNW 6.9 mph - N/A   Clear
8:35 AM 21.2 °F 13.6 °F 5.0 °F 50% 30.40 in 10.0 mi WNW 5.8 mph - N/A   Clear
8:55 AM 21.2 °F 11.7 °F 5.0 °F 50% 30.40 in 10.0 mi NW 8.1 mph - N/A   Clear
9:15 AM 23.0 °F 13.9 °F 5.0 °F 46% 30.40 in 10.0 mi NW 8.1 mph - N/A   Clear
9:35 AM 23.0 °F 17.0 °F 5.0 °F 46% 30.40 in 10.0 mi NW 4.6 mph - N/A   Clear
9:55 AM 23.0 °F 15.8 °F 3.2 °F 43% 30.40 in 10.0 mi WNW 5.8 mph - N/A   Clear
10:15 AM 24.8 °F 17.9 °F 3.2 °F 40% 30.41 in 10.0 mi WNW 5.8 mph - N/A   Clear
10:35 AM 26.6 °F 19.1 °F 3.2 °F 37% 30.41 in 10.0 mi WNW 6.9 mph 17.3 mph N/A   Clear
10:55 AM 26.6 °F 20.0 °F 3.2 °F 37% 30.42 in 10.0 mi NW 5.8 mph - N/A   Clear
11:15 AM 26.6 °F 21.2 °F 3.2 °F 37% 30.42 in 10.0 mi NW 4.6 mph - N/A   Clear
11:35 AM 26.6 °F 22.6 °F 3.2 °F 37% 30.41 in 10.0 mi WNW 3.5 mph - N/A   Clear
11:55 AM 28.4 °F 21.2 °F 3.2 °F 34% 30.40 in 10.0 mi WNW 6.9 mph - N/A   Clear
12:15 PM 28.4 °F 24.6 °F 3.2 °F 34% 30.39 in 10.0 mi NW 3.5 mph - N/A   Clear
12:35 PM 28.4 °F 24.6 °F 3.2 °F 34% 30.37 in 10.0 mi NW 3.5 mph - N/A   Clear
12:55 PM 30.2 °F 24.3 °F 3.2 °F 32% 30.37 in 10.0 mi North 5.8 mph - N/A   Clear
1:15 PM 30.2 °F 24.3 °F 3.2 °F 32% 30.37 in 10.0 mi NNW 5.8 mph - N/A   Clear
1:35 PM 30.2 °F 25.4 °F 3.2 °F 32% 30.37 in 10.0 mi NNW 4.6 mph - N/A   Clear
1:55 PM 30.2 °F 25.4 °F 3.2 °F 32% 30.37 in 10.0 mi WNW 4.6 mph - N/A   Clear
2:15 PM 32.0 °F 28.7 °F 3.2 °F 30% 30.36 in 10.0 mi NW 3.5 mph - N/A   Clear
2:35 PM 32.0 °F 28.7 °F 3.2 °F 30% 30.37 in 10.0 mi NNW 3.5 mph - N/A   Clear
2:55 PM 32.0 °F - 3.2 °F 30% 30.37 in 10.0 mi Calm Calm - N/A   Clear
3:15 PM 32.0 °F - 3.2 °F 30% 30.37 in 10.0 mi Calm Calm - N/A   Clear
3:35 PM 32.0 °F 28.7 °F 1.4 °F 27% 30.36 in 10.0 mi North 3.5 mph - N/A   Clear
3:55 PM 32.0 °F - 1.4 °F 27% 30.35 in 10.0 mi Calm Calm - N/A   Clear
4:15 PM 32.0 °F - 3.2 °F 30% 30.36 in 10.0 mi Calm Calm - N/A   Clear
4:35 PM 32.0 °F - 1.4 °F 27% 30.35 in 10.0 mi Calm Calm - N/A   Clear
4:55 PM 32.0 °F - 1.4 °F 27% 30.35 in 10.0 mi Calm Calm - N/A   Clear
5:15 PM 32.0 °F - 1.4 °F 27% 30.35 in 10.0 mi Calm Calm - N/A   Clear
5:35 PM 30.2 °F - 1.4 °F 29% 30.35 in 10.0 mi Calm Calm - N/A   Clear
5:55 PM 26.6 °F - 6.8 °F 43% 30.34 in 10.0 mi Calm Calm - N/A   Clear
6:15 PM 24.8 °F - 8.6 °F 50% 30.34 in 10.0 mi Calm Calm - N/A   Clear
6:35 PM 26.6 °F - 8.6 °F 47% 30.35 in 10.0 mi Calm Calm - N/A   Clear
6:55 PM 23.0 °F - 12.2 °F 63% 30.34 in 10.0 mi Calm Calm - N/A   Clear
7:15 PM 21.2 °F - 10.4 °F 63% 30.34 in 10.0 mi Calm Calm - N/A   Clear
7:35 PM 21.2 °F - 12.2 °F 68% 30.34 in 10.0 mi Calm Calm - N/A   Clear
7:55 PM 21.2 °F - 12.2 °F 68% 30.33 in 10.0 mi Calm Calm - N/A   Clear
8:15 PM 19.4 °F - 10.4 °F 68% 30.32 in 10.0 mi Calm Calm - N/A   Clear
8:35 PM 21.2 °F - 10.4 °F 63% 30.33 in 10.0 mi Calm Calm - N/A   Clear
8:55 PM 21.2 °F - 10.4 °F 63% 30.32 in 10.0 mi Calm Calm - N/A   Clear
9:15 PM 19.4 °F - 10.4 °F 68% 30.31 in 10.0 mi Calm Calm - N/A   Clear
9:35 PM 21.2 °F - 12.2 °F 68% 30.31 in 10.0 mi Calm Calm - N/A   Clear
9:55 PM 19.4 °F - 12.2 °F 74% 30.31 in 10.0 mi Calm Calm - N/A   Clear
10:15 PM 21.2 °F - 12.2 °F 68% 30.30 in 10.0 mi Calm Calm - N/A   Scattered Clouds
10:35 PM 21.2 °F - 12.2 °F 68% 30.29 in 10.0 mi Calm Calm - N/A   Clear
10:55 PM 21.2 °F - 14.0 °F 74% 30.29 in 10.0 mi Calm Calm - N/A   Clear
11:15 PM 23.0 °F - 14.0 °F 68% 30.28 in 10.0 mi Calm Calm - N/A   Clear
11:35 PM 24.8 °F - 14.0 °F 64% 30.29 in 10.0 mi Calm Calm - N/A   Clear
11:55 PM 24.8 °F 19.1 °F 15.8 °F 69% 30.26 in 10.0 mi ENE 4.6 mph - N/A   Clear